Regional Weather Roundup
Issued by NWS

Home | Current Version | Previous Version | Text Only | Print | Product List | Glossary Off
Versions: 1 2 3 4 5 6 7 8 9 10 11 12 13 14 15 16 17 18 19 20 21 22 23 24 25 26 27 28 29 30 31 32 33 34 35 36 37 38 39 40 41 42 43 44 45 46 47 48 49 50

000
ASUS43 KIND 240409
RWRIN

WEATHER ROUNDUP FOR INDIANA
NATIONAL WEATHER SERVICE INDIANAPOLIS IN
1200 AM EDT SUN SEP 24 2017

NOTE: "FAIR" INDICATES FEW OR NO CLOUDS BELOW 12,000 FEET WITH NO
SIGNIFICANT WEATHER AND/OR OBSTRUCTIONS TO VISIBILITY.

* - STATION DOES NOT REPORT WEATHER SUCH AS PRECIPITATION OR FOG.

+ - STATION NOT QUALITY CONTROLLED BY THE NATIONAL WEATHER SERVICE.
    USE DATA WITH CAUTION...ESPECIALLY DEWPOINT AND RELATIVE
    HUMIDITY OBSERVATIONS.

INZ001>003-010>013-019-020-240500-
NORTHWEST INDIANA

CITY           SKY/WX    TMP DP  RH WIND       PRES   REMARKS
GARY /AIRPORT/ CLEAR     70  67  92 SE5       30.07S
KNOX *+        CLEAR     68  64  88 CALM      30.08R
LA PORTE +     CLEAR     69  65  89 CALM      30.10R
MICHIGAN CITY+ CLEAR     70  64  83 CALM      30.09R
MONTICELLO +   CLEAR     71  67  87 CALM      30.07R
RENSSELAER +   CLEAR     73  61  64 NE3       30.07S
VALPARAISO     CLEAR     73  66  78 NE5       30.09R

$$

LMZ046-743>745-240500-
SOUTHERN LAKE MICHIGAN

STATION/POSITION TIME  TEMP    WIND        PRES    WAVE
                       AIR SEA DIR/SP/G            HT
                 (UTC) (F)     (DEG/KT/KT) (MB)    (FT)
BURNS HARBOR     0340   82     140/  6/ 13 1018.6R
MICHIGAN CITY    0340   78     120/  6/  6   N/A
5NW MICH CITY    0400   77 73  140/  4/  6   N/A     0

$$

INZ004-005-014>016-021>024-240500-
NORTH CENTRAL INDIANA

CITY           SKY/WX    TMP DP  RH WIND       PRES   REMARKS
GOSHEN         CLEAR     74  62  66 SE6       30.10S
LOGANSPORT +   CLEAR     66  63  88 E5        30.09S
PERU/GRISSOM   CLEAR     73  63  72 E5        30.08R
SOUTH BEND     CLEAR     71  67  87 CALM      30.10R
WARSAW +       CLEAR     70  63  78 E6        30.10S

$$

INZ006>009-017-018-025>027-240500-
NORTHEAST INDIANA

CITY           SKY/WX    TMP DP  RH WIND       PRES   REMARKS
AUBURN +       CLEAR     70  61  73 CALM      30.12S
FORT WAYNE     CLEAR     69  61  75 E5        30.11S
HUNTINGTON +   CLEAR     69  62  77 CALM      30.10S
KENDALLVILLE + CLEAR     71  63  76 SE3       30.13R

$$

INZ028-029-035-036-043>045-051>053-240500-
WEST CENTRAL INDIANA

CITY           SKY/WX    TMP DP  RH WIND       PRES   REMARKS
CRAWFORDSVL +  CLEAR     64  63  94 CALM      30.08
GREENCASTLE +  CLEAR     70  61  73 CALM      30.08S
LAFAYETTE      CLEAR     69  66  90 CALM      30.06R
TERRE HAUTE    CLEAR     64  61  90 NE3       30.06R

$$

INZ030>032-037>040-046>048-054>057-064-065-240500-
CENTRAL INDIANA

CITY           SKY/WX    TMP DP  RH WIND       PRES   REMARKS
CP ATTERBURY + CLEAR     64  63  94 CALM      30.08S
FISHERS *+     CLEAR     66  66 100 CALM      30.08S
FRANKFORT +    CLOUDY    68  66  93 CALM      30.10R
GREENWOOD *+   CLEAR     71  68  91 CALM      30.08S
INDIANAPOLIS   CLEAR     77  63  61 E3        30.07S
-EAGLE CREEK   CLEAR     74  65  73 CALM      30.07R
KOKOMO +       CLEAR     71  65  81 E5        30.10R
MT COMFORT *+  CLEAR     66  63  88 CALM      30.09R
SHELBYVILLE    CLEAR     68  63  84 CALM      30.07S
ZIONSVILLE +     N/A     66  64  94 CALM      30.09S

$$

INZ033-034-041-042-049-050-058-059-240500-
EAST CENTRAL INDIANA

CITY           SKY/WX    TMP DP  RH WIND       PRES   REMARKS
MUNCIE         CLEAR     70  62  76 SE3       30.10R
RICHMOND +     CLEAR     66  61  82 E3        30.12R

$$

INZ060-061-067>069-081>083-085>088-240500-
SOUTHWEST INDIANA

CITY           SKY/WX    TMP DP  RH WIND       PRES   REMARKS
EVANSVILLE     CLEAR     69  65  86 CALM      30.04S
HUNTINGBURG +  CLEAR     68  66  93 CALM      30.05S
WASHINGTON +   CLEAR     66  64  94 CALM      30.04S

$$

INZ062-063-066-070>080-084-089>092-240500-
SOUTH CENTRAL AND SOUTHEAST INDIANA

CITY           SKY/WX    TMP DP  RH WIND       PRES   REMARKS
BEDFORD +      CLEAR     68  63  83 E3        30.06S
BLOOMINGTON    CLEAR     65  60  84 CALM      30.07R
MADISON *+     CLEAR     66  64  94 CALM      30.09S
NORTH VERNON + CLEAR     64  64 100 NE3       30.08S FOG
SEYMOUR +      CLEAR     68  66  94 CALM      30.06S FOG

$$





USA.gov is the U.S. government's official web portal to all federal, state and local government web resources and services.